This demonstration page uses our WeatherBlox Daily Observations layout. Learn more.

Left ArrowRight Arrow

38.83388, -104.82136

Hourly Observations for January 21, 2015

Temp ( °F °C ) Dew Point ( °F °C ) Humidity (%) Winds ( mph kmh ) Pressure ( in mb ) Visibility ( mi km ) Precip ( " mm )
12:01 am 00:01 Mostly Cloudy with Light Snow Showers 27 -3 28 -2 100 100 SSE 8 13 29.94 1014 1 2 N/A
12:04 am 00:04 Mostly Cloudy with Light Snow Showers 27 -3 28 -2 100 100 SE 8 13 29.94 1014 1 2 N/A
12:09 am 00:09 Mostly Cloudy with Light Snow Showers 27 -3 28 -2 100 100 SE 8 13 29.94 1014 1 2 N/A
12:12 am 00:12 Mostly Cloudy 28 -2 28 -2 100 100 SE 7 11 29.91 1013 1 2 N/A
12:13 am 00:13 Mostly Cloudy with Light Snow Showers 28 -2 28 -2 100 100 SE 7 11 29.91 1013 1 2 N/A
12:23 am 00:23 Mostly Cloudy with Light Snow Showers 27 -3 28 -2 100 100 SE 10 17 29.94 1014 1 2 N/A
12:33 am 00:33 Mostly Cloudy with Heavy Snow Showers 27 -3 27 -3 100 100 SSE 8 13 29.94 1014 1 2 N/A
12:41 am 00:41 Mostly Cloudy with Heavy Snow Showers 27 -3 27 -3 100 100 SSE 9 15 29.94 1014 1 2 N/A
12:56 am 00:56 Mostly Cloudy with Heavy Snow 27 -2.7 27 -2.6 100 100 SE 6 9 29.93 1014 1 2 0.01 0.25
1:08 am 01:08 Mostly Cloudy with Snow 27 -3 28 -2 100 100 NE 3 6 29.94 1014 1 2 N/A
2:15 am 02:15 Cloudy with Snow 23 -5 23 -5 100 100 N 14 22 30.00 1016 3 5 N/A
2:20 am 02:20 Cloudy with Snow 23 -5 23 -5 100 100 N 13 20 30.00 1016 7 11 N/A
2:35 am 02:35 Cloudy with Light Snow 23 -5 23 -5 100 100 NNW 8 13 30.00 1016 3 4 N/A
2:56 am 02:56 Cloudy with Light Snow 23 -5.2 22 -5.3 99 99 NNW 8 13 29.96 1015 6 10 N/A
3:22 am 03:22 Cloudy with Light Snow 23 -5 23 -5 100 100 N 9 15 30.00 1016 2 2 N/A
3:31 am 03:31 Cloudy with Light Snow 23 -5 23 -5 100 100 N 10 17 30.00 1016 2 3 N/A
3:56 am 03:56 Cloudy with Light Snow 22 -5.6 22 -5.8 99 99 N 9 15 29.95 1014 4 6 0.02 0.51
4:23 am 04:23 Cloudy with Light Snow 21 -6 21 -6 100 100 N 6 9 30.03 1017 2 3 N/A
4:33 am 04:33 Cloudy with Light Snow 21 -6 21 -6 100 100 NNW 6 9 30.03 1017 3 5 N/A
4:38 am 04:38 Cloudy with Light Snow 21 -6 21 -6 100 100 NW 5 7 30.03 1017 4 6 N/A
4:56 am 04:56 Cloudy with Light Snow 21 -5.9 21 -6.2 98 98 NW 6 9 29.94 1014 4 6 0.01 0.25
5:07 am 05:07 Cloudy with Light Snow 21 -6 21 -6 100 100 NNW 6 9 30.03 1017 4 6 N/A
5:12 am 05:12 Cloudy with Light Snow 21 -6 21 -6 100 100 NW 7 11 30.03 1017 3 5 N/A
5:56 am 05:56 Cloudy with Light Snow 21 -6.1 20 -6.5 97 97 NW 3 6 29.95 1014 4 6 N/A
6:06 am 06:06 Cloudy with Light Snow 21 -6 19 -7 93 93 W 1 2 30.03 1017 3 5 N/A
6:51 am 06:51 Cloudy with Light Snow 21 -6 19 -7 93 93 N 6 9 30.03 1017 4 6 N/A
6:56 am 06:56 Cloudy with Light Snow 22 -5.8 20 -6.7 93 93 NNW 6 9 29.95 1014 5 8 0.01 0.25
7:21 am 07:21 Cloudy with Light Snow 21 -6 19 -7 93 93 N 5 7 30.03 1017 7 11 N/A
7:41 am 07:41 Cloudy with Light Snow 21 -6 21 -6 100 100 NE 2 4 30.03 1017 2 3 N/A
7:51 am 07:51 Cloudy with Light Snow 21 -6 21 -6 100 100 N 3 6 30.03 1017 3 5 N/A
7:56 am 07:56 Cloudy with Light Snow 21 -6 21 -6.3 98 98 N 5 7 29.96 1015 1 2 0.01 0.25
8:01 am 08:01 Cloudy with Light Snow 21 -6 21 -6 100 100 N 3 6 30.03 1017 1 2 N/A
8:13 am 08:13 Cloudy with Snow 21 -6 21 -6 100 100 NNE 1 2 30.03 1017 1 1 N/A
8:33 am 08:33 Cloudy with Light Snow 21 -6 21 -6 100 100 S 1 2 30.03 1017 1 2 N/A
8:38 am 08:38 Cloudy with Light Snow 21 -6 21 -6 100 100 E 2 4 30.03 1017 1 2 N/A
8:43 am 08:43 Cloudy 21 -6 21 -6 100 100 E 3 6 30.03 1017 1 2 N/A
8:44 am 08:44 Cloudy with Light Snow 21 -6 21 -6 100 100 ESE 3 6 30.03 1017 1 2 N/A
8:56 am 08:56 Cloudy with Light Snow 21 -6.2 20 -6.4 99 99 Calm 29.97 1015 1 2 0.02 0.51
9:20 am 09:20 Cloudy with Light Snow 21 -6 21 -6 100 100 SSE 2 4 30.06 1018 1 2 N/A
9:30 am 09:30 Cloudy with Light Snow 21 -6 21 -6 100 100 SSE 5 7 30.06 1018 1 2 N/A
9:55 am 09:55 Mostly Cloudy with Light Snow 21 -6 21 -6 100 100 SSE 5 7 30.09 1019 1 2 N/A
10:06 am 10:06 Mostly Cloudy with Light Snow 21 -6 21 -6 100 100 ESE 6 9 30.09 1019 1 2 N/A
10:20 am 10:20 Mostly Cloudy with Snow 21 -6 21 -6 100 100 ESE 3 6 30.09 1019 1 1 N/A
10:35 am 10:35 Mostly Cloudy with Light Snow 21 -6 21 -6 100 100 SE 3 6 30.09 1019 1 2 N/A
10:40 am 10:40 Mostly Cloudy 21 -6 19 -7 93 93 S 1 2 30.09 1019 1 2 N/A
10:41 am 10:41 Mostly Cloudy with Light Snow 21 -6 19 -7 93 93 S 1 2 30.09 1019 1 2 N/A
10:56 am 10:56 Mostly Cloudy with Light Snow 21 -6.3 20 -6.6 98 98 S 2 4 30.00 1016 7 11 0.02 0.51
11:06 am 11:06 Cloudy with Light Snow 21 -6 19 -7 93 93 ESE 3 6 30.06 1018 1 2 N/A
11:11 am 11:11 Cloudy with Light Snow 21 -6 21 -6 100 100 SE 3 6 30.06 1018 1 2 N/A
11:21 am 11:21 Mostly Cloudy with Light Snow 21 -6 19 -7 93 93 SE 5 7 30.06 1018 7 11 N/A
11:27 am 11:27 Mostly Cloudy with Light Snow 21 -6 21 -6 100 100 ESE 8 13 30.06 1018 1 1 N/A
11:38 am 11:38 Mostly Cloudy 21 -6 21 -6 100 100 ESE 9 15 30.06 1018 1 1 N/A
11:39 am 11:39 Mostly Cloudy with Light Snow 21 -6 21 -6 100 100 ESE 8 13 30.06 1018 1 1 N/A
11:56 am 11:56 Mostly Cloudy with Snow 20 -6.6 20 -6.7 99 99 E 1 2 30.00 1016 1 1 0.02 0.51
12:11 pm 12:11 Cloudy with Snow 21 -6 19 -7 93 93 ENE 3 6 30.06 1018 1 1 N/A
12:21 pm 12:21 Cloudy with Snow 21 -6 19 -7 93 93 ENE 2 4 30.03 1017 5 8 N/A
12:34 pm 12:34 Cloudy with Light Snow 21 -6 19 -7 93 93 ENE 1 2 30.03 1017 1 1 N/A
12:56 pm 12:56 Mostly Cloudy with Light Snow 20 -6.7 19 -7 98 98 E 5 7 29.98 1015 5 8 0.03 0.76
12:58 pm 12:58 Mostly Cloudy with Light Snow 19 -7 19 -7 100 100 NE 6 9 30.03 1017 5 8 N/A
1:28 pm 13:28 Cloudy with Light Snow 19 -7 19 -7 100 100 NW 6 9 30.03 1017 1 2 N/A
1:30 pm 13:30 Cloudy with Light Snow 19 -7 19 -7 100 100 WNW 7 11 30.03 1017 1 2 N/A
1:35 pm 13:35 Cloudy with Light Snow 19 -7 19 -7 100 100 NW 7 11 30.03 1017 1 2 N/A
1:42 pm 13:42 Cloudy with Light Snow 19 -7 19 -7 100 100 NNE 6 9 30.03 1017 1 2 N/A
1:52 pm 13:52 Cloudy with Light Snow 21 -6 19 -7 93 93 NE 6 9 30.03 1017 1 1 N/A
1:56 pm 13:56 Cloudy with Light Snow 20 -6.6 20 -6.9 98 98 ENE 3 6 29.99 1016 1 1 0.02 0.51
1:58 pm 13:58 Cloudy with Light Snow 21 -6 19 -7 93 93 ENE 3 6 30.03 1017 1 1 N/A
2:13 pm 14:13 Mostly Cloudy with Snow 19 -7 19 -7 100 100 N 2 4 30.03 1017 1 1 N/A
2:18 pm 14:18 Mostly Cloudy with Snow 19 -7 19 -7 100 100 N 5 7 30.03 1017 1 1 N/A
2:23 pm 14:23 Mostly Cloudy with Snow 19 -7 19 -7 100 100 ENE 6 9 30.03 1017 5 8 N/A
2:33 pm 14:33 Mostly Cloudy with Heavy Snow 19 -7 19 -7 100 100 NE 5 7 30.03 1017 5 8 N/A
2:36 pm 14:36 Cloudy with Heavy Snow 19 -7 19 -7 100 100 NE 5 7 30.03 1017 3 5 N/A
2:56 pm 14:56 Mostly Cloudy with Snow 19 -7.4 18 -7.8 97 97 NE 2 4 30.00 1016 1 1 0.02 0.51
3:04 pm 15:04 Mostly Cloudy with Snow 19 -7 18 -8 93 93 NE 2 4 30.03 1017 3 5 N/A
3:14 pm 15:14 Mostly Cloudy with Snow 19 -7 19 -7 100 100 NNE 5 7 30.03 1017 5 8 N/A
3:22 pm 15:22 Cloudy with Snow 19 -7 19 -7 100 100 NE 2 4 30.09 1019 5 8 N/A
3:37 pm 15:37 Cloudy with Light Snow 19 -7 18 -8 93 93 NE 3 6 30.09 1019 1 1 N/A
3:49 pm 15:49 Cloudy with Light Snow 19 -7 18 -8 93 93 N 7 11 30.09 1019 5 8 N/A
3:54 pm 15:54 Cloudy with Snow 19 -7 18 -8 93 93 N 3 6 30.09 1019 3 5 N/A
3:56 pm 15:56 Cloudy with Snow 19 -7.2 18 -7.9 95 95 N 3 6 30.03 1017 3 5 0.01 0.25
4:15 pm 16:15 Cloudy with Snow 19 -7 18 -8 93 93 NE 5 7 30.09 1019 1 1 N/A
4:25 pm 16:25 Mostly Cloudy with Heavy Snow 19 -7 18 -8 93 93 N 7 11 30.12 1020 1 2 N/A
4:30 pm 16:30 Mostly Cloudy with Heavy Snow 19 -7 18 -8 93 93 N 13 20 30.09 1019 1 2 N/A
4:50 pm 16:50 Mostly Cloudy with Heavy Snow 19 -7 18 -8 93 93 NNW 15 24 30.12 1020 3 5 N/A
4:56 pm 16:56 Cloudy with Heavy Snow 19 -7.5 17 -8.6 92 92 NW 14 22 30.04 1017 1 1 0.01 0.25
5:01 pm 17:01 Cloudy with Snow 18 -8 16 -9 93 93 NNW 12 19 30.15 1021 1 1 N/A
5:11 pm 17:11 Cloudy with Snow 18 -8 16 -9 93 93 NNW 13 20 30.15 1021 3 5 N/A
5:41 pm 17:41 Mostly Cloudy with Snow 18 -8 16 -9 93 93 NNE 9 15 30.18 1022 3 5 N/A
5:46 pm 17:46 Mostly Cloudy with Heavy Snow 18 -8 18 -8 100 100 NE 7 11 30.18 1022 5 8 N/A
5:51 pm 17:51 Mostly Cloudy with Heavy Snow 18 -8 16 -9 93 93 NE 6 9 30.18 1022 0 0 N/A
5:56 pm 17:56 Mostly Cloudy with Heavy Snow 17 -8.3 16 -8.7 97 97 NE 3 6 30.10 1019 5 8 0.01 0.25
6:40 pm 18:40 Cloudy with Heavy Snow 18 -8 16 -9 93 93 N 2 4 30.18 1022 5 8 N/A
6:50 pm 18:50 Mostly Cloudy with Heavy Snow 18 -8 16 -9 93 93 N 5 7 30.18 1022 3 5 N/A
6:55 pm 18:55 Mostly Cloudy 18 -8 16 -9 93 93 N 5 7 30.18 1022 3 5 N/A
6:56 pm 18:56 Mostly Cloudy with Heavy Snow 17 -8.3 16 -8.7 97 97 N 5 7 30.12 1020 0 0 0.01 0.25
6:59 pm 18:59 Cloudy 18 -8 16 -9 93 93 NNE 5 7 30.18 1022 3 5 N/A
7:00 pm 19:00 Cloudy with Heavy Snow 18 -8 16 -9 93 93 NNE 5 7 30.18 1022 3 5 N/A
7:10 pm 19:10 Cloudy with Snow 18 -8 16 -9 93 93 NNE 3 6 30.18 1022 1 1 N/A
7:15 pm 19:15 Cloudy with Snow 18 -8 16 -9 93 93 NNE 5 7 30.18 1022 1 1 N/A
7:25 pm 19:25 Cloudy with Snow 18 -8 18 -8 100 100 NNE 3 6 30.18 1022 1 1 N/A
7:37 pm 19:37 Cloudy with Light Snow 18 -8 16 -9 93 93 N 6 9 30.18 1022 2 3 N/A

Powered by AerisWeather